Tracking 19817 objects as of 19-Aug-2019
HD Live streaming from Space Station
objects crossing your sky now

COSMOS 2251 DEB

Track COSMOS 2251 DEB now!
10-day predictions


NORAD ID: 34908
Int'l Code: 1993-036ADD
Perigee: 765.9 km
Apogee: 830.2 km
Inclination: 74.1 °
Period: 100.7 minutes
Semi major axis: 7169 km
RCS: 0.0114 m2 (small)
Launch date: June 16, 1993
Source: Commonwealth of Independent States (former USSR) (CIS)
Launch site: PLESETSK MISSILE AND SPACE COMPLEX (PKMTR)

Note: This is SATELLITE DEBRIS
aabbcc
Your satellite tracking list
Your tracking list is empty




NASA's NSSDC Master Catalog

Two Line Element Set (TLE):
1 34908U 93036ADD 19230.55252027 +.00000194 +00000-0 +83729-4 0  9995
2 34908 074.0597 269.8669 0044859 144.3672 012.7969 14.30241381542317
Source of the keplerian elements: AFSPC